NK0V Weather Reports


Display with metric or nautical units.
time (UTC)temp
F
wind
direction
speed
MPH
gust
MPH
rain 1hr
in
rain 24hr
in
rain mn
in
humidity
%
barometer
mb
20260507051102 38 84 2.0 7.0 0.00 0.00 0.00 61 1013.7
20260507050559 38 90 2.0 8.0 0.00 0.00 0.00 60 1013.7
20260507045559 38 76 3.0 7.0 0.00 0.00 0.00 60 1013.7
20260507045059 38 63 2.0 6.0 0.00 0.00 0.00 61 1013.8
20260507044600 38 65 2.0 6.0 0.00 0.00 0.00 62 1013.8
20260507044058 38 59 2.0 4.0 0.00 0.00 0.00 62 1013.9
20260507043559 38 73 2.0 4.0 0.00 0.00 0.00 62 1013.9
20260507043057 38 45 2.0 5.0 0.00 0.00 0.00 62 1014.0
20260507042600 37 61 2.0 5.0 0.00 0.00 0.00 62 1014.0
20260507042102 37 67 2.0 4.0 0.00 0.00 0.00 63 1014.0
20260507041613 37 38 2.0 4.0 0.00 0.00 0.00 63 1014.0
20260507041101 37 61 2.0 4.0 0.00 0.00 0.00 63 1014.0
20260507040558 37 57 2.0 5.0 0.00 0.00 0.00 63 1014.1
20260507035554 37 44 2.0 5.0 0.00 0.00 0.00 61 1014.1
20260507035057 37 65 2.0 5.0 0.00 0.00 0.00 60 1014.0
20260507034605 37 66 2.0 4.0 0.00 0.00 0.00 59 1014.0
20260507034057 37 53 2.0 5.0 0.00 0.00 0.00 59 1014.1
20260507033557 38 69 2.0 5.0 0.00 0.00 0.00 58 1014.0
20260507033056 38 61 2.0 4.0 0.00 0.00 0.00 57 1014.1
20260507032602 38 65 1.0 4.0 0.00 0.00 0.00 57 1014.2
20260507032101 39 60 2.0 5.0 0.00 0.00 0.00 56 1014.1
20260507031600 39 45 2.0 5.0 0.00 0.00 0.00 55 1014.1
20260507031057 40 61 2.0 5.0 0.00 0.00 0.00 54 1014.1
20260507030557 40 60 1.0 4.0 0.00 0.00 0.00 54 1014.1
20260507030058 41 53 1.0 4.0 0.00 0.00 0.00 53 1014.0
20260507025555 41 57 1.0 6.0 0.00 0.00 0.00 52 1014.1
20260507025057 42 58 2.0 6.0 0.00 0.00 0.00 51 1014.0
20260507024557 42 46 3.0 6.0 0.00 0.00 0.00 50 1014.0
20260507024054 43 40 2.0 5.0 0.00 0.00 0.00 49 1014.0
20260507023557 43 38 2.0 3.0 0.00 0.00 0.00 49 1014.0
20260507023056 44 40 1.0 4.0 0.00 0.00 0.00 48 1014.0
20260507022557 44 26 2.0 4.0 0.00 0.00 0.00 48 1014.0
20260507022058 45 21 2.0 4.0 0.00 0.00 0.00 47 1014.0
20260507021627 45 10 2.0 3.0 0.00 0.00 0.00 46 1014.0
20260507021057 45 21 1.0 3.0 0.00 0.00 0.00 46 1014.0
20260507020558 45 19 1.0 3.0 0.00 0.00 0.00 45 1014.0
20260507020112 46 360 1.0 3.0 0.00 0.00 0.00 45 1013.9
20260507015559 46 355 0.0 3.0 0.00 0.00 0.00 45 1013.9
20260507015057 46 5 1.0 4.0 0.00 0.00 0.00 44 1013.9
20260507014621 47 319 1.0 4.0 0.00 0.00 0.00 44 1013.8
20260507014054 47 326 0.0 4.0 0.00 0.00 0.00 44 1013.8
20260507013554 47 338 1.0 5.0 0.00 0.00 0.00 43 1013.8
20260507013058 48 0 1.0 5.0 0.00 0.00 0.00 43 1013.8
20260507012554 48 350 2.0 5.0 0.00 0.00 0.00 43 1013.8
20260507012054 48 351 2.0 24.0 0.00 0.00 0.00 42 1013.8
20260507011601 48 310 2.0 24.0 0.00 0.00 0.00 42 1013.8
20260506155102 45 263 8.0 14.0 0.00 0.00 0.00 48 1017.5
20260506154613 45 350 7.0 15.0 0.00 0.00 0.00 52 1017.6
20260506154059 44 302 6.0 19.0 0.00 0.00 0.00 52 1017.6
20260506153558 44 314 8.0 19.0 0.00 0.00 0.00 51 1017.6
20260506153058 44 310 6.0 16.0 0.00 0.00 0.00 51 1017.7
20260506152556 44 302 5.0 17.0 0.00 0.00 0.00 52 1017.6
20260506152101 43 290 6.0 17.0 0.00 0.00 0.00 52 1017.6
20260506151558 43 257 8.0 16.0 0.00 0.00 0.00 52 1017.6
20260506151058 43 289 6.0 17.0 0.00 0.00 0.00 53 1017.6
20260506150555 42 300 7.0 17.0 0.00 0.00 0.00 54 1017.7
20260506150057 42 250 7.0 17.0 0.00 0.00 0.00 54 1017.6
20260506145559 42 275 5.0 15.0 0.00 0.00 0.00 55 1017.6
20260506145101 41 349 6.0 19.0 0.00 0.00 0.00 56 1017.6
20260506144604 41 273 8.0 19.0 0.00 0.00 0.00 57 1017.6
20260506144103 40 289 4.0 12.0 0.00 0.00 0.00 61 1017.7
20260506143603 39 305 6.0 12.0 0.00 0.00 0.00 60 1017.6
20260506143058 39 292 3.0 9.0 0.00 0.00 0.00 61 1017.5
20260506142558 38 338 5.0 10.0 0.00 0.00 0.00 62 1017.5
20260506142058 38 304 4.0 10.0 0.00 0.00 0.00 62 1017.5
20260506141602 38 293 5.0 13.0 0.00 0.00 0.00 62 1017.5
20260506141103 38 323 7.0 13.0 0.00 0.00 0.00 64 1017.5
20260506140602 37 292 4.0 11.0 0.00 0.00 0.00 65 1017.4
20260506140057 37 266 5.0 11.0 0.00 0.00 0.00 65 1017.4
20260506135559 37 312 5.0 13.0 0.00 0.00 0.00 65 1017.4
20260506135059 37 311 4.0 13.0 0.00 0.00 0.00 66 1017.4
20260506134601 36 265 7.0 11.0 0.00 0.00 0.00 67 1017.4
20260506134055 36 285 6.0 11.0 0.00 0.00 0.00 69 1017.4
20260506133559 36 271 5.0 11.0 0.00 0.00 0.00 69 1017.4
20260506133126 35 277 4.0 9.0 0.00 0.00 0.00 71 1017.3
20260506132559 35 302 2.0 9.0 0.00 0.00 0.00 71 1017.4
20260506132059 35 279 4.0 9.0 0.00 0.00 0.00 71 1017.4
20260506131558 34 297 3.0 8.0 0.00 0.00 0.00 71 1017.3
20260506131059 34 301 2.0 7.0 0.00 0.00 0.00 71 1017.2
20260506130559 34 271 2.0 7.0 0.00 0.00 0.00 72 1017.2
20260506130121 34 307 2.0 7.0 0.00 0.00 0.00 72 1017.2
20260506125559 34 296 3.0 6.0 0.00 0.00 0.00 72 1017.2
20260506125058 33 281 2.0 6.0 0.00 0.00 0.00 72 1017.2
20260506124600 33 280 1.0 6.0 0.00 0.00 0.00 72 1017.1
20260506124058 33 0 0.0 6.0 0.00 0.00 0.00 72 1017.2
20260506123559 33 245 2.0 6.0 0.00 0.00 0.00 73 1017.1
20260506123057 33 256 2.0 5.0 0.00 0.00 0.00 73 1017.0
20260506122602 33 254 1.0 4.0 0.00 0.00 0.00 73 1017.0
20260506122059 33 273 1.0 3.0 0.00 0.00 0.00 72 1016.9
20260506121559 33 274 1.0 3.0 0.00 0.00 0.00 72 1016.8
20260506121059 33 284 1.0 3.0 0.00 0.00 0.00 72 1016.8
20260506120601 32 280 1.0 3.0 0.00 0.00 0.00 72 1016.7
20260506115602 32 278 1.0 3.0 0.00 0.00 0.00 72 1016.6
20260506115058 32 289 1.0 3.0 0.00 0.00 0.00 72 1016.5
20260506114605 32 284 1.0 3.0 0.00 0.00 0.00 72 1016.4
20260506114059 32 277 1.0 3.0 0.00 0.00 0.00 72 1016.3
20260506113558 32 272 1.0 2.0 0.00 0.00 0.00 72 1016.3
20260506113056 32 264 0.0 3.0 0.00 0.00 0.00 72 1016.2
20260506112602 32 0 0.0 4.0 0.00 0.00 0.00 72 1016.1
20260506112102 32 264 1.0 4.0 0.00 0.00 0.00 71 1016.1
20260506111557 32 273 1.0 3.0 0.00 0.00 0.00 71 1016.0
20260506111059 32 278 1.0 3.0 0.00 0.00 0.00 71 1016.0
20260506110559 32 0 2.0 3.0 0.00 0.00 0.00 71 1015.9
20260506110057 32 273 1.0 4.0 0.00 0.00 0.00 71 1015.9
20260506105559 32 280 2.0 4.0 0.00 0.00 0.00 71 1015.8
20260506105059 32 284 1.0 4.0 0.00 0.00 0.00 70 1015.8
20260506104632 32 286 1.0 4.0 0.00 0.00 0.00 70 1015.8
20260506104059 32 290 1.0 3.0 0.00 0.00 0.00 70 1015.7
20260506103558 32 290 1.0 3.0 0.00 0.00 0.00 70 1015.7
20260506103108 32 290 1.0 3.0 0.00 0.00 0.00 70 1015.7
20260506102559 33 286 1.0 3.0 0.00 0.00 0.00 69 1015.8
20260506102102 33 0 1.0 3.0 0.00 0.00 0.00 68 1015.7
20260506101558 33 298 1.0 2.0 0.00 0.00 0.00 68 1015.7
20260506101059 33 0 0.0 3.0 0.00 0.00 0.00 67 1015.7
20260506100559 33 298 1.0 3.0 0.00 0.00 0.00 67 1015.7
20260506100100 33 298 0.0 2.0 0.00 0.00 0.00 67 1015.7
20260506095601 34 311 0.0 3.0 0.00 0.00 0.00 67 1015.6
20260506095059 34 0 0.0 3.0 0.00 0.00 0.00 67 1015.5
20260506094557 34 298 1.0 3.0 0.00 0.00 0.00 67 1015.5
20260506094058 34 0 0.0 2.0 0.00 0.00 0.00 68 1015.5
20260506093559 34 0 0.0 2.0 0.00 0.00 0.00 68 1015.5
20260506093104 34 305 0.0 2.0 0.00 0.00 0.00 68 1015.5
20260506092557 34 308 0.0 3.0 0.00 0.00 0.00 68 1015.5
20260506092057 34 0 0.0 3.0 0.00 0.00 0.00 68 1015.6
20260506091556 34 279 1.0 3.0 0.00 0.00 0.00 68 1015.8
20260506091057 34 279 0.0 3.0 0.00 0.00 0.00 68 1015.8
20260506090556 34 0 1.0 3.0 0.00 0.00 0.00 68 1015.9
20260506090057 34 309 1.0 4.0 0.00 0.00 0.00 68 1015.9
20260506085557 34 299 1.0 4.0 0.00 0.00 0.00 68 1015.7
20260506085056 34 301 0.0 3.0 0.00 0.00 0.00 68 1015.5
20260506084557 34 321 1.0 5.0 0.00 0.00 0.00 68 1015.3
20260506084055 34 0 1.0 5.0 0.00 0.00 0.00 68 1015.2
20260506083555 34 321 1.0 5.0 0.00 0.00 0.00 69 1015.0
20260506083056 34 332 2.0 4.0 0.00 0.00 0.00 69 1015.0
20260506082554 34 33 2.0 4.0 0.00 0.00 0.00 68 1014.9
20260506082056 34 9 1.0 4.0 0.00 0.00 0.00 68 1014.8
20260506081601 34 9 1.0 4.0 0.00 0.00 0.00 68 1014.7
20260506081055 34 5 2.0 4.0 0.00 0.00 0.00 68 1014.8
20260506080555 34 360 1.0 4.0 0.00 0.00 0.00 68 1014.9
20260506080109 34 355 1.0 4.0 0.00 0.00 0.00 68 1015.0
20260506073057 34 306 0.0 3.0 0.00 0.00 0.00 66 1015.3
20260506072600 34 295 0.0 3.0 0.00 0.00 0.00 66 1015.4
20260506072057 34 313 0.0 3.0 0.00 0.00 0.00 65 1015.4
20260506071620 34 307 0.0 3.0 0.00 0.00 0.00 65 1015.2
20260506071056 34 301 0.0 3.0 0.00 0.00 0.00 64 1015.2
20260506070558 34 291 0.0 2.0 0.00 0.00 0.00 64 1015.2
20260506062058 35 303 1.0 3.0 0.00 0.00 0.00 64 1015.2
20260506061600 35 304 0.0 3.0 0.00 0.00 0.00 64 1015.2
20260506061058 35 0 0.0 3.0 0.00 0.00 0.00 64 1015.1
20260506060602 35 327 1.0 3.0 0.00 0.00 0.00 64 1015.0